Kalispell, MT

12:14 AM MDT on July 26, 2017 (GMT -0600)
Glacier Park International

Weather History for KGPI - February, 2014

Change the Weather History Date:

Sunday, February 2, 2014

  Actual Average Record
Temperature  
Mean Temperature 20 °F 26 °F  
Max Temperature 24 °F 34 °F 56 °F (1962)
Min Temperature 16 °F 18 °F -29 °F (1950)
Degree Days  
Heating Degree Days 45 39  
Month to date heating degree days 100 78  
Since 1 July heating degree days 4737 4869  
Cooling Degree Days 0 0  
Month to date cooling degree days 0 0  
Year to date cooling degree days 0 0  
Moisture  
Dew Point 14 °F    
Average Humidity 81    
Maximum Humidity 88    
Minimum Humidity 73    
Precipitation  
Precipitation T in 0.04 in 0.80 in (1917)
Month to date precipitation T 0.07  
Year to date precipitation 1.35 1.40  
Snow  
Snow 0.30 in - - ()
Month to date snowfall 0.3  
Year to date snowfall 15.9  
Since 1 July snowfall 49.4  
Snow Depth 4.00 in    
Sea Level Pressure  
Sea Level Pressure 30.06 in    
Wind  
Wind Speed 2 mph (North)    
Max Wind Speed 15 mph    
Max Gust Speed 18 mph    
Visibility 9 miles    
Events Snow    
T = Trace of Precipitation, MM = Missing Value Source: NWS Daily Summary

Daily Weather History Graph

Daily Weather History Graph

Search for Another Location

Airport or City:

Trip Planner

Search our weather history database for the weather conditions in past years. The results will help you decide how hot, cold, wet, or windy it might be!

Date:

Astronomy

Feb. 02, 2014 Rise Set
Actual Time 8:04 AM MST 5:38 PM MST
Civil Twilight 7:30 AM MST 6:11 PM MST
Nautical Twilight 6:53 AM MST 6:48 PM MST
Astronomical Twilight 6:16 AM MST 7:25 PM MST
Moon 9:13 AM MST (2/2) 9:48 PM MST (2/2)
Length of Visible Light 10h 40m
Length of Day
9h 34m
Waxing Crescent, 12% of the Moon is Illuminated
Feb 2
Waxing Crescent
Feb 6
First Quarter
Feb 14
Full
Feb 22
Last Quarter
Mar 1
New

Hourly Weather History & Observations

Time (MST) Temp. Windchill Dew Point Humidity Pressure Visibility Wind Dir Wind Speed Gust Speed Precip Events Conditions
12:19 AM 17.6 °F - 12.2 °F 79% 30.04 in 10.0 mi Calm Calm - N/A   Overcast
12:55 AM 18.0 °F - 12.9 °F 81% 30.17 in 10.0 mi Calm Calm - N/A   Overcast
1:55 AM 18.0 °F - 12.9 °F 81% 30.16 in 10.0 mi Calm Calm - N/A   Overcast
2:55 AM 17.1 °F - 14.0 °F 88% 30.16 in 10.0 mi Calm Calm - N/A   Overcast
3:55 AM 17.1 °F - 14.0 °F 88% 30.16 in 10.0 mi Calm Calm - N/A   Overcast
4:55 AM 17.1 °F - 12.9 °F 84% 30.15 in 7.0 mi Calm Calm - 0.00 in Snow Light Snow
5:55 AM 17.1 °F - 14.0 °F 88% 30.15 in 7.0 mi Calm Calm - 0.00 in   Overcast
6:55 AM 17.1 °F - 14.0 °F 88% 30.14 in 10.0 mi Calm Calm - 0.00 in   Overcast
7:55 AM 17.1 °F - 12.9 °F 84% 30.13 in 10.0 mi Calm Calm - N/A   Overcast
8:55 AM 17.1 °F - 12.9 °F 84% 30.14 in 10.0 mi Calm Calm - N/A   Overcast
9:55 AM 19.0 °F - 14.0 °F 81% 30.13 in 9.0 mi Calm Calm - 0.00 in Snow Light Snow
10:55 AM 19.9 °F 14.9 °F 14.0 °F 78% 30.12 in 9.0 mi North 3.5 mph - 0.00 in Snow Light Snow
11:55 AM 21.9 °F 17.2 °F 15.1 °F 75% 30.10 in 9.0 mi North 3.5 mph - 0.00 in Snow Light Snow
12:17 PM 21.2 °F - 15.8 °F 80% 29.97 in 5.0 mi Calm Calm - 0.00 in Snow Light Snow
12:27 PM 21.2 °F - 15.8 °F 80% 29.96 in 2.0 mi Calm Calm - 0.00 in Snow Light Snow
12:45 PM 21.2 °F - 15.8 °F 80% 29.95 in 5.0 mi Calm Calm - 0.00 in Snow Light Snow
12:55 PM 23.0 °F - 16.0 °F 74% 30.07 in 9.0 mi Calm Calm - 0.00 in   Overcast
1:55 PM 23.0 °F - 17.1 °F 78% 30.05 in 10.0 mi Calm Calm - N/A   Overcast
2:55 PM 21.9 °F 14.5 °F 16.0 °F 78% 30.04 in 10.0 mi NNE 5.8 mph - N/A   Overcast
3:55 PM 21.9 °F - 15.1 °F 75% 30.04 in 10.0 mi Calm Calm - N/A   Overcast
4:17 PM 21.2 °F 16.4 °F 15.8 °F 80% 29.92 in 10.0 mi SW 3.5 mph - N/A   Overcast
4:37 PM 21.2 °F - 15.8 °F 80% 29.91 in 10.0 mi Calm Calm - N/A   Overcast
4:55 PM 21.0 °F 14.6 °F 15.1 °F 78% 30.04 in 10.0 mi NNE 4.6 mph - N/A   Overcast
5:55 PM 19.9 °F - 15.1 °F 81% 30.03 in 10.0 mi Calm Calm - N/A   Overcast
6:55 PM 19.9 °F 13.4 °F 14.0 °F 78% 30.02 in 10.0 mi North 4.6 mph - N/A   Overcast
7:55 PM 19.0 °F - 14.0 °F 81% 30.01 in 10.0 mi Calm Calm - N/A   Overcast
8:55 PM 18.0 °F 11.1 °F 12.9 °F 81% 30.00 in 10.0 mi North 4.6 mph - N/A   Overcast
9:55 PM 18.0 °F 9.8 °F 12.0 °F 78% 29.99 in 10.0 mi West 5.8 mph - N/A   Overcast
10:55 PM 19.0 °F 6.8 °F 12.9 °F 77% 29.98 in 10.0 mi North 11.5 mph - N/A   Overcast
11:55 PM 21.0 °F 8.6 °F 12.9 °F 71% 29.96 in 10.0 mi North 12.7 mph - N/A   Overcast